owner,sensor,date,latitude,longitude,vertical_datum,sea_water_practical_salinity,qcFlag 
TABS,ioos:station:wmo:42050:1,2011-11-01T00:00:00Z,28.8425,-94.2433,2.0,19.8584,11111222 
TABS,ioos:station:wmo:42050:1,2011-11-01T00:30:00Z,28.8425,-94.2433,2.0,19.8608,11111222 
TABS,ioos:station:wmo:42050:1,2011-11-01T01:00:00Z,28.8425,-94.2433,2.0,19.8671,11111222 
TABS,ioos:station:wmo:42050:1,2011-11-01T01:30:00Z,28.8425,-94.2433,2.0,19.859,11111222 
TABS,ioos:station:wmo:42050:1,2011-11-01T02:00:00Z,28.8425,-94.2433,2.0,19.858,11111222 
TABS,ioos:station:wmo:42050:1,2011-11-01T02:30:00Z,28.8425,-94.2433,2.0,19.8483,11111222 
TABS,ioos:station:wmo:42050:1,2011-11-01T03:00:00Z,28.8425,-94.2433,2.0,19.9066,11111222 
TABS,ioos:station:wmo:42050:1,2011-11-01T03:30:00Z,28.8425,-94.2433,2.0,19.8883,11111222 
TABS,ioos:station:wmo:42050:1,2011-11-01T04:00:00Z,28.8425,-94.2433,2.0,19.9422,11111222 
TABS,ioos:station:wmo:42050:1,2011-11-01T04:30:00Z,28.8425,-94.2433,2.0,21.2998,11111222 
TABS,ioos:station:wmo:42050:1,2011-11-01T05:00:00Z,28.8425,-94.2433,2.0,21.3856,11111222 
TABS,ioos:station:wmo:42050:1,2011-11-01T05:30:00Z,28.8425,-94.2433,2.0,21.4804,11111222 
TABS,ioos:station:wmo:42050:1,2011-11-01T06:00:00Z,28.8425,-94.2433,2.0,21.504,11111222 
TABS,ioos:station:wmo:42050:1,2011-11-01T06:30:00Z,28.8425,-94.2433,2.0,21.6567,11111222 
TABS,ioos:station:wmo:42050:1,2011-11-01T07:00:00Z,28.8425,-94.2433,2.0,21.8249,11111222 
TABS,ioos:station:wmo:42050:1,2011-11-01T07:30:00Z,28.8425,-94.2433,2.0,21.9653,11111222 
TABS,ioos:station:wmo:42050:1,2011-11-01T08:00:00Z,28.8425,-94.2433,2.0,22.2136,11111222 
TABS,ioos:station:wmo:42050:1,2011-11-01T08:30:00Z,28.8425,-94.2433,2.0,22.273,11111222 
TABS,ioos:station:wmo:42050:1,2011-11-01T09:00:00Z,28.8425,-94.2433,2.0,22.4012,11111222 
TABS,ioos:station:wmo:42050:1,2011-11-01T09:30:00Z,28.8425,-94.2433,2.0,22.3913,11111222 
TABS,ioos:station:wmo:42050:1,2011-11-01T10:00:00Z,28.8425,-94.2433,2.0,22.5684,11111222 
TABS,ioos:station:wmo:42050:1,2011-11-01T10:30:00Z,28.8425,-94.2433,2.0,22.5798,11111222 
TABS,ioos:station:wmo:42050:1,2011-11-01T11:00:00Z,28.8425,-94.2433,2.0,22.7342,11111222 
TABS,ioos:station:wmo:42050:1,2011-11-01T11:30:00Z,28.8425,-94.2433,2.0,22.7161,11111222 
TABS,ioos:station:wmo:42050:1,2011-11-01T12:00:00Z,28.8425,-94.2433,2.0,22.8045,11111222 
TABS,ioos:station:wmo:42050:1,2011-11-01T12:30:00Z,28.8425,-94.2433,2.0,22.7889,11111222 
TABS,ioos:station:wmo:42050:1,2011-11-01T13:00:00Z,28.8425,-94.2433,2.0,22.9893,11111222 
TABS,ioos:station:wmo:42050:1,2011-11-01T13:30:00Z,28.8425,-94.2433,2.0,22.8547,11111222 
TABS,ioos:station:wmo:42050:1,2011-11-01T14:00:00Z,28.8425,-94.2433,2.0,22.9363,11111222 
TABS,ioos:station:wmo:42050:1,2011-11-01T14:30:00Z,28.8425,-94.2433,2.0,23.0326,11111222 
TABS,ioos:station:wmo:42050:1,2011-11-01T15:00:00Z,28.8425,-94.2433,2.0,22.9717,11111222 
TABS,ioos:station:wmo:42050:1,2011-11-01T15:30:00Z,28.8425,-94.2433,2.0,23.1064,11111222 
TABS,ioos:station:wmo:42050:1,2011-11-01T16:00:00Z,28.8425,-94.2433,2.0,23.0486,11111222 
TABS,ioos:station:wmo:42050:1,2011-11-01T16:30:00Z,28.8425,-94.2433,2.0,23.1339,11111222 
TABS,ioos:station:wmo:42050:1,2011-11-01T17:00:00Z,28.8425,-94.2433,2.0,23.0405,11111222 
TABS,ioos:station:wmo:42050:1,2011-11-01T17:30:00Z,28.8425,-94.2433,2.0,23.0776,11111222 
TABS,ioos:station:wmo:42050:1,2011-11-01T18:00:00Z,28.8425,-94.2433,2.0,23.1907,11111222 
TABS,ioos:station:wmo:42050:1,2011-11-01T18:30:00Z,28.8425,-94.2433,2.0,23.2132,11111222 
TABS,ioos:station:wmo:42050:1,2011-11-01T19:00:00Z,28.8425,-94.2433,2.0,23.3256,11111222 
TABS,ioos:station:wmo:42050:1,2011-11-01T19:30:00Z,28.8425,-94.2433,2.0,23.2522,11111222 
TABS,ioos:station:wmo:42050:1,2011-11-01T20:00:00Z,28.8425,-94.2433,2.0,23.3728,11111222 
TABS,ioos:station:wmo:42050:1,2011-11-01T20:30:00Z,28.8425,-94.2433,2.0,23.3632,11111222 
TABS,ioos:station:wmo:42050:1,2011-11-01T21:00:00Z,28.8425,-94.2433,2.0,23.3288,11111222 
TABS,ioos:station:wmo:42050:1,2011-11-01T21:30:00Z,28.8425,-94.2433,2.0,23.3753,11111222 
TABS,ioos:station:wmo:42050:1,2011-11-01T22:00:00Z,28.8425,-94.2433,2.0,23.4682,11111222 
TABS,ioos:station:wmo:42050:1,2011-11-01T22:30:00Z,28.8425,-94.2433,2.0,23.4626,11111222 
TABS,ioos:station:wmo:42050:1,2011-11-01T23:00:00Z,28.8425,-94.2433,2.0,23.4491,11111222 
TABS,ioos:station:wmo:42050:1,2011-11-01T23:30:00Z,28.8425,-94.2433,2.0,23.4528,11111222 
TABS,ioos:station:wmo:42050:1,2011-11-02T00:00:00Z,28.8425,-94.2433,2.0,23.4521,11111222 
TABS,ioos:station:wmo:42050:1,2011-11-02T00:30:00Z,28.8425,-94.2433,2.0,23.5156,11111222 
TABS,ioos:station:wmo:42050:1,2011-11-02T01:00:00Z,28.8425,-94.2433,2.0,23.5833,11111222 
TABS,ioos:station:wmo:42050:1,2011-11-02T01:30:00Z,28.8425,-94.2433,2.0,23.7581,11111222 
TABS,ioos:station:wmo:42050:1,2011-11-02T02:00:00Z,28.8425,-94.2433,2.0,23.5898,11111222 
TABS,ioos:station:wmo:42050:1,2011-11-02T02:30:00Z,28.8425,-94.2433,2.0,23.7864,11111222 
TABS,ioos:station:wmo:42050:1,2011-11-02T03:00:00Z,28.8425,-94.2433,2.0,23.9437,11111222 
TABS,ioos:station:wmo:42050:1,2011-11-02T03:30:00Z,28.8425,-94.2433,2.0,23.9728,11111222 
TABS,ioos:station:wmo:42050:1,2011-11-02T04:00:00Z,28.8425,-94.2433,2.0,24.0476,11111222 
TABS,ioos:station:wmo:42050:1,2011-11-02T04:30:00Z,28.8425,-94.2433,2.0,23.9149,11111222 
TABS,ioos:station:wmo:42050:1,2011-11-02T05:00:00Z,28.8425,-94.2433,2.0,23.9854,11111222 
TABS,ioos:station:wmo:42050:1,2011-11-02T05:30:00Z,28.8425,-94.2433,2.0,23.8707,11111222 
TABS,ioos:station:wmo:42050:1,2011-11-02T06:00:00Z,28.8425,-94.2433,2.0,24.0123,11111222 
TABS,ioos:station:wmo:42050:1,2011-11-02T06:30:00Z,28.8425,-94.2433,2.0,23.962,11111222 
TABS,ioos:station:wmo:42050:1,2011-11-02T07:00:00Z,28.8425,-94.2433,2.0,24.1967,11111222 
TABS,ioos:station:wmo:42050:1,2011-11-02T07:30:00Z,28.8425,-94.2433,2.0,24.0694,11111222 
TABS,ioos:station:wmo:42050:1,2011-11-02T08:00:00Z,28.8425,-94.2433,2.0,24.0955,11111222 
TABS,ioos:station:wmo:42050:1,2011-11-02T08:30:00Z,28.8425,-94.2433,2.0,24.2992,11111222 
TABS,ioos:station:wmo:42050:1,2011-11-02T09:00:00Z,28.8425,-94.2433,2.0,24.3543,11111222 
TABS,ioos:station:wmo:42050:1,2011-11-02T09:30:00Z,28.8425,-94.2433,2.0,24.267,11111222 
TABS,ioos:station:wmo:42050:1,2011-11-02T10:00:00Z,28.8425,-94.2433,2.0,24.2794,11111222 
TABS,ioos:station:wmo:42050:1,2011-11-02T10:30:00Z,28.8425,-94.2433,2.0,24.3442,11111222 
TABS,ioos:station:wmo:42050:1,2011-11-02T11:00:00Z,28.8425,-94.2433,2.0,24.3215,11111222 
TABS,ioos:station:wmo:42050:1,2011-11-02T11:30:00Z,28.8425,-94.2433,2.0,24.2816,11111222 
TABS,ioos:station:wmo:42050:1,2011-11-02T12:00:00Z,28.8425,-94.2433,2.0,24.2527,11111222 
TABS,ioos:station:wmo:42050:1,2011-11-02T12:30:00Z,28.8425,-94.2433,2.0,24.3861,11111222 
TABS,ioos:station:wmo:42050:1,2011-11-02T13:00:00Z,28.8425,-94.2433,2.0,24.2091,11111222 
TABS,ioos:station:wmo:42050:1,2011-11-02T13:30:00Z,28.8425,-94.2433,2.0,24.2199,11111222 
TABS,ioos:station:wmo:42050:1,2011-11-02T14:00:00Z,28.8425,-94.2433,2.0,24.326,11111222 
TABS,ioos:station:wmo:42050:1,2011-11-02T14:30:00Z,28.8425,-94.2433,2.0,24.2524,11111222 
TABS,ioos:station:wmo:42050:1,2011-11-02T15:00:00Z,28.8425,-94.2433,2.0,24.2434,11111222 
TABS,ioos:station:wmo:42050:1,2011-11-02T15:30:00Z,28.8425,-94.2433,2.0,24.2248,11111222 
TABS,ioos:station:wmo:42050:1,2011-11-02T16:00:00Z,28.8425,-94.2433,2.0,24.2858,11111222 
TABS,ioos:station:wmo:42050:1,2011-11-02T16:30:00Z,28.8425,-94.2433,2.0,24.3115,11111222 
TABS,ioos:station:wmo:42050:1,2011-11-02T17:00:00Z,28.8425,-94.2433,2.0,24.2586,11111222 
TABS,ioos:station:wmo:42050:1,2011-11-02T17:30:00Z,28.8425,-94.2433,2.0,24.25,11111222 
TABS,ioos:station:wmo:42050:1,2011-11-02T18:00:00Z,28.8425,-94.2433,2.0,24.5202,11111222 
TABS,ioos:station:wmo:42050:1,2011-11-02T18:30:00Z,28.8425,-94.2433,2.0,24.4646,11111222 
TABS,ioos:station:wmo:42050:1,2011-11-02T19:00:00Z,28.8425,-94.2433,2.0,24.3407,11111222 
TABS,ioos:station:wmo:42050:1,2011-11-02T19:30:00Z,28.8425,-94.2433,2.0,24.2074,11111222 
TABS,ioos:station:wmo:42050:1,2011-11-02T20:00:00Z,28.8425,-94.2433,2.0,24.2018,11111222 
TABS,ioos:station:wmo:42050:1,2011-11-02T20:30:00Z,28.8425,-94.2433,2.0,24.2301,11111222 
TABS,ioos:station:wmo:42050:1,2011-11-02T21:00:00Z,28.8425,-94.2433,2.0,24.2269,11111222 
TABS,ioos:station:wmo:42050:1,2011-11-02T21:30:00Z,28.8425,-94.2433,2.0,24.1251,11111222 
TABS,ioos:station:wmo:42050:1,2011-11-02T22:00:00Z,28.8425,-94.2433,2.0,24.0931,11111222 
TABS,ioos:station:wmo:42050:1,2011-11-02T22:30:00Z,28.8425,-94.2433,2.0,24.0997,11111222 
TABS,ioos:station:wmo:42050:1,2011-11-02T23:00:00Z,28.8425,-94.2433,2.0,24.0869,11111222 
TABS,ioos:station:wmo:42050:1,2011-11-02T23:30:00Z,28.8425,-94.2433,2.0,24.0767,11111222 
TABS,ioos:station:wmo:42050:1,2011-11-03T00:00:00Z,28.8425,-94.2433,2.0,24.0119,11111222 
TABS,ioos:station:wmo:42050:1,2011-11-03T00:30:00Z,28.8425,-94.2433,2.0,24.001,11111222 
TABS,ioos:station:wmo:42050:1,2011-11-03T01:00:00Z,28.8425,-94.2433,2.0,23.8765,11111222 
TABS,ioos:station:wmo:42050:1,2011-11-03T01:30:00Z,28.8425,-94.2433,2.0,23.9877,11111222 
TABS,ioos:station:wmo:42050:1,2011-11-03T02:00:00Z,28.8425,-94.2433,2.0,23.87,11111222 
TABS,ioos:station:wmo:42050:1,2011-11-03T02:30:00Z,28.8425,-94.2433,2.0,24.0301,11111222 
TABS,ioos:station:wmo:42050:1,2011-11-03T03:00:00Z,28.8425,-94.2433,2.0,23.9947,11111222 
TABS,ioos:station:wmo:42050:1,2011-11-03T03:30:00Z,28.8425,-94.2433,2.0,23.8456,11111222 
TABS,ioos:station:wmo:42050:1,2011-11-03T04:00:00Z,28.8425,-94.2433,2.0,23.8718,11111222 
TABS,ioos:station:wmo:42050:1,2011-11-03T04:30:00Z,28.8425,-94.2433,2.0,23.8648,11111222 
TABS,ioos:station:wmo:42050:1,2011-11-03T05:00:00Z,28.8425,-94.2433,2.0,23.8725,11111222 
TABS,ioos:station:wmo:42050:1,2011-11-03T05:30:00Z,28.8425,-94.2433,2.0,24.049,11111222 
TABS,ioos:station:wmo:42050:1,2011-11-03T06:00:00Z,28.8425,-94.2433,2.0,23.9215,11111222 
TABS,ioos:station:wmo:42050:1,2011-11-03T06:30:00Z,28.8425,-94.2433,2.0,23.9392,11111222 
TABS,ioos:station:wmo:42050:1,2011-11-03T07:00:00Z,28.8425,-94.2433,2.0,24.0144,11111222 
TABS,ioos:station:wmo:42050:1,2011-11-03T07:30:00Z,28.8425,-94.2433,2.0,23.8966,11111222 
TABS,ioos:station:wmo:42050:1,2011-11-03T08:00:00Z,28.8425,-94.2433,2.0,23.9382,11111222 
TABS,ioos:station:wmo:42050:1,2011-11-03T08:30:00Z,28.8425,-94.2433,2.0,24.0731,11111222 
TABS,ioos:station:wmo:42050:1,2011-11-03T09:00:00Z,28.8425,-94.2433,2.0,23.8676,11111222 
TABS,ioos:station:wmo:42050:1,2011-11-03T09:30:00Z,28.8425,-94.2433,2.0,23.9778,11111222 
TABS,ioos:station:wmo:42050:1,2011-11-03T10:00:00Z,28.8425,-94.2433,2.0,24.0694,11111222 
TABS,ioos:station:wmo:42050:1,2011-11-03T10:30:00Z,28.8425,-94.2433,2.0,24.3872,11111222 
TABS,ioos:station:wmo:42050:1,2011-11-03T11:00:00Z,28.8425,-94.2433,2.0,24.4226,11111222 
TABS,ioos:station:wmo:42050:1,2011-11-03T11:30:00Z,28.8425,-94.2433,2.0,24.7207,11111222 
TABS,ioos:station:wmo:42050:1,2011-11-03T12:00:00Z,28.8425,-94.2433,2.0,24.7781,11111222 
TABS,ioos:station:wmo:42050:1,2011-11-03T12:30:00Z,28.8425,-94.2433,2.0,24.8963,11111222 
TABS,ioos:station:wmo:42050:1,2011-11-03T13:00:00Z,28.8425,-94.2433,2.0,24.9942,11111222 
TABS,ioos:station:wmo:42050:1,2011-11-03T13:30:00Z,28.8425,-94.2433,2.0,24.9686,11111222 
TABS,ioos:station:wmo:42050:1,2011-11-03T14:00:00Z,28.8425,-94.2433,2.0,24.9671,11111222 
TABS,ioos:station:wmo:42050:1,2011-11-03T14:30:00Z,28.8425,-94.2433,2.0,25.1659,11111222 
TABS,ioos:station:wmo:42050:1,2011-11-03T15:00:00Z,28.8425,-94.2433,2.0,25.2016,11111222 
TABS,ioos:station:wmo:42050:1,2011-11-03T15:30:00Z,28.8425,-94.2433,2.0,25.026,11111222 
TABS,ioos:station:wmo:42050:1,2011-11-03T16:00:00Z,28.8425,-94.2433,2.0,25.0742,11111222 
TABS,ioos:station:wmo:42050:1,2011-11-03T16:30:00Z,28.8425,-94.2433,2.0,25.0728,11111222 
TABS,ioos:station:wmo:42050:1,2011-11-03T17:00:00Z,28.8425,-94.2433,2.0,25.0744,11111222 
TABS,ioos:station:wmo:42050:1,2011-11-03T17:30:00Z,28.8425,-94.2433,2.0,25.0095,11111222 
TABS,ioos:station:wmo:42050:1,2011-11-03T18:00:00Z,28.8425,-94.2433,2.0,25.2516,11111222 
TABS,ioos:station:wmo:42050:1,2011-11-03T18:30:00Z,28.8425,-94.2433,2.0,25.309,11111222 
TABS,ioos:station:wmo:42050:1,2011-11-03T19:00:00Z,28.8425,-94.2433,2.0,25.2743,11111222 
TABS,ioos:station:wmo:42050:1,2011-11-03T19:30:00Z,28.8425,-94.2433,2.0,25.2471,11111222 
TABS,ioos:station:wmo:42050:1,2011-11-03T20:00:00Z,28.8425,-94.2433,2.0,25.2878,11111222 
TABS,ioos:station:wmo:42050:1,2011-11-03T20:30:00Z,28.8425,-94.2433,2.0,25.3198,11111222 
TABS,ioos:station:wmo:42050:1,2011-11-03T21:00:00Z,28.8425,-94.2433,2.0,25.186,11111222 
TABS,ioos:station:wmo:42050:1,2011-11-03T21:30:00Z,28.8425,-94.2433,2.0,25.1289,11111222 
TABS,ioos:station:wmo:42050:1,2011-11-03T22:00:00Z,28.8425,-94.2433,2.0,25.0624,11111222 
TABS,ioos:station:wmo:42050:1,2011-11-03T22:30:00Z,28.8425,-94.2433,2.0,25.1792,11111222 
TABS,ioos:station:wmo:42050:1,2011-11-03T23:00:00Z,28.8425,-94.2433,2.0,25.0199,11111222 
TABS,ioos:station:wmo:42050:1,2011-11-03T23:30:00Z,28.8425,-94.2433,2.0,25.138,11111222 
TABS,ioos:station:wmo:42050:1,2011-11-04T00:00:00Z,28.8425,-94.2433,2.0,25.1038,11111222 
TABS,ioos:station:wmo:42050:1,2011-11-04T00:30:00Z,28.8425,-94.2433,2.0,24.9214,11111222 
TABS,ioos:station:wmo:42050:1,2011-11-04T01:00:00Z,28.8425,-94.2433,2.0,25.0768,11111222 
TABS,ioos:station:wmo:42050:1,2011-11-04T01:30:00Z,28.8425,-94.2433,2.0,25.1209,11111222 
TABS,ioos:station:wmo:42050:1,2011-11-04T02:00:00Z,28.8425,-94.2433,2.0,25.0268,11111222 
TABS,ioos:station:wmo:42050:1,2011-11-04T02:30:00Z,28.8425,-94.2433,2.0,25.0323,11111222 
TABS,ioos:station:wmo:42050:1,2011-11-04T03:00:00Z,28.8425,-94.2433,2.0,24.8532,11111222 
TABS,ioos:station:wmo:42050:1,2011-11-04T03:30:00Z,28.8425,-94.2433,2.0,25.075,11111222 
TABS,ioos:station:wmo:42050:1,2011-11-04T04:00:00Z,28.8425,-94.2433,2.0,25.0029,11111222 
TABS,ioos:station:wmo:42050:1,2011-11-04T04:30:00Z,28.8425,-94.2433,2.0,25.1307,11111222 
TABS,ioos:station:wmo:42050:1,2011-11-04T05:00:00Z,28.8425,-94.2433,2.0,25.104,11111222 
TABS,ioos:station:wmo:42050:1,2011-11-04T05:30:00Z,28.8425,-94.2433,2.0,25.2761,11111222 
TABS,ioos:station:wmo:42050:1,2011-11-04T06:00:00Z,28.8425,-94.2433,2.0,24.972,11111222 
TABS,ioos:station:wmo:42050:1,2011-11-04T06:30:00Z,28.8425,-94.2433,2.0,25.0111,11111222 
TABS,ioos:station:wmo:42050:1,2011-11-04T07:00:00Z,28.8425,-94.2433,2.0,25.1943,11111222 
TABS,ioos:station:wmo:42050:1,2011-11-04T07:30:00Z,28.8425,-94.2433,2.0,25.0727,11111222 
TABS,ioos:station:wmo:42050:1,2011-11-04T08:00:00Z,28.8425,-94.2433,2.0,25.2415,11111222 
TABS,ioos:station:wmo:42050:1,2011-11-04T08:30:00Z,28.8425,-94.2433,2.0,25.2143,11111222 
TABS,ioos:station:wmo:42050:1,2011-11-04T09:00:00Z,28.8425,-94.2433,2.0,25.0538,11111222 
TABS,ioos:station:wmo:42050:1,2011-11-04T09:30:00Z,28.8425,-94.2433,2.0,25.1944,11111222 
TABS,ioos:station:wmo:42050:1,2011-11-04T10:00:00Z,28.8425,-94.2433,2.0,24.9931,11111222 
TABS,ioos:station:wmo:42050:1,2011-11-04T10:30:00Z,28.8425,-94.2433,2.0,25.0244,11111222 
TABS,ioos:station:wmo:42050:1,2011-11-04T11:00:00Z,28.8425,-94.2433,2.0,24.9737,11111222 
TABS,ioos:station:wmo:42050:1,2011-11-04T11:30:00Z,28.8425,-94.2433,2.0,25.0195,11111222 
TABS,ioos:station:wmo:42050:1,2011-11-04T12:00:00Z,28.8425,-94.2433,2.0,24.8924,11111222 
TABS,ioos:station:wmo:42050:1,2011-11-04T12:30:00Z,28.8425,-94.2433,2.0,24.933,11111222 
TABS,ioos:station:wmo:42050:1,2011-11-04T13:00:00Z,28.8425,-94.2433,2.0,24.9497,11111222 
TABS,ioos:station:wmo:42050:1,2011-11-04T13:30:00Z,28.8425,-94.2433,2.0,24.8525,11111222 
TABS,ioos:station:wmo:42050:1,2011-11-04T14:00:00Z,28.8425,-94.2433,2.0,24.8161,11111222 
TABS,ioos:station:wmo:42050:1,2011-11-04T14:30:00Z,28.8425,-94.2433,2.0,24.8993,11111222 
TABS,ioos:station:wmo:42050:1,2011-11-04T15:00:00Z,28.8425,-94.2433,2.0,24.8567,11111222 
TABS,ioos:station:wmo:42050:1,2011-11-04T15:30:00Z,28.8425,-94.2433,2.0,24.8576,11111222 
TABS,ioos:station:wmo:42050:1,2011-11-04T16:00:00Z,28.8425,-94.2433,2.0,24.7531,11111222 
TABS,ioos:station:wmo:42050:1,2011-11-04T16:30:00Z,28.8425,-94.2433,2.0,24.7879,11111222 
TABS,ioos:station:wmo:42050:1,2011-11-04T17:00:00Z,28.8425,-94.2433,2.0,24.7045,11111222 
TABS,ioos:station:wmo:42050:1,2011-11-04T17:30:00Z,28.8425,-94.2433,2.0,24.5816,11111222 
TABS,ioos:station:wmo:42050:1,2011-11-04T18:00:00Z,28.8425,-94.2433,2.0,24.6868,11111222 
TABS,ioos:station:wmo:42050:1,2011-11-04T18:30:00Z,28.8425,-94.2433,2.0,24.8294,11111222 
TABS,ioos:station:wmo:42050:1,2011-11-04T19:00:00Z,28.8425,-94.2433,2.0,24.6619,11111222 
TABS,ioos:station:wmo:42050:1,2011-11-04T19:30:00Z,28.8425,-94.2433,2.0,24.714,11111222 
TABS,ioos:station:wmo:42050:1,2011-11-04T20:00:00Z,28.8425,-94.2433,2.0,24.7388,11111222 
TABS,ioos:station:wmo:42050:1,2011-11-04T20:30:00Z,28.8425,-94.2433,2.0,24.651,11111222 
TABS,ioos:station:wmo:42050:1,2011-11-04T21:00:00Z,28.8425,-94.2433,2.0,24.6437,11111222 
TABS,ioos:station:wmo:42050:1,2011-11-04T21:30:00Z,28.8425,-94.2433,2.0,24.5924,11111222 
TABS,ioos:station:wmo:42050:1,2011-11-04T22:00:00Z,28.8425,-94.2433,2.0,24.6046,11111222 
TABS,ioos:station:wmo:42050:1,2011-11-04T22:30:00Z,28.8425,-94.2433,2.0,24.5532,11111222 
TABS,ioos:station:wmo:42050:1,2011-11-04T23:00:00Z,28.8425,-94.2433,2.0,24.5503,11111222 
TABS,ioos:station:wmo:42050:1,2011-11-04T23:30:00Z,28.8425,-94.2433,2.0,24.5497,11111222 
TABS,ioos:station:wmo:42050:1,2011-11-05T00:00:00Z,28.8425,-94.2433,2.0,24.5411,11111222 
TABS,ioos:station:wmo:42050:1,2011-11-05T00:30:00Z,28.8425,-94.2433,2.0,24.5509,11111222 
TABS,ioos:station:wmo:42050:1,2011-11-05T01:00:00Z,28.8425,-94.2433,2.0,24.5191,11111222 
TABS,ioos:station:wmo:42050:1,2011-11-05T01:30:00Z,28.8425,-94.2433,2.0,24.5076,11111222 
TABS,ioos:station:wmo:42050:1,2011-11-05T02:00:00Z,28.8425,-94.2433,2.0,24.4954,11111222 
TABS,ioos:station:wmo:42050:1,2011-11-05T02:30:00Z,28.8425,-94.2433,2.0,24.504,11111222 
TABS,ioos:station:wmo:42050:1,2011-11-05T03:00:00Z,28.8425,-94.2433,2.0,24.5444,11111222 
TABS,ioos:station:wmo:42050:1,2011-11-05T03:30:00Z,28.8425,-94.2433,2.0,24.4475,11111222 
TABS,ioos:station:wmo:42050:1,2011-11-05T04:00:00Z,28.8425,-94.2433,2.0,24.4727,11111222 
TABS,ioos:station:wmo:42050:1,2011-11-05T04:30:00Z,28.8425,-94.2433,2.0,24.4956,11111222 
TABS,ioos:station:wmo:42050:1,2011-11-05T05:00:00Z,28.8425,-94.2433,2.0,24.433,11111222 
TABS,ioos:station:wmo:42050:1,2011-11-05T05:30:00Z,28.8425,-94.2433,2.0,24.4873,11111222 
TABS,ioos:station:wmo:42050:1,2011-11-05T06:00:00Z,28.8425,-94.2433,2.0,24.4118,11111222 
TABS,ioos:station:wmo:42050:1,2011-11-05T06:30:00Z,28.8425,-94.2433,2.0,24.5118,11111222 
TABS,ioos:station:wmo:42050:1,2011-11-05T07:00:00Z,28.8425,-94.2433,2.0,24.5766,11111222 
TABS,ioos:station:wmo:42050:1,2011-11-05T07:30:00Z,28.8425,-94.2433,2.0,24.53,11111222 
TABS,ioos:station:wmo:42050:1,2011-11-05T08:00:00Z,28.8425,-94.2433,2.0,24.5881,11111222 
TABS,ioos:station:wmo:42050:1,2011-11-05T08:30:00Z,28.8425,-94.2433,2.0,24.4746,11111222 
TABS,ioos:station:wmo:42050:1,2011-11-05T09:00:00Z,28.8425,-94.2433,2.0,24.4813,11111222 
TABS,ioos:station:wmo:42050:1,2011-11-05T09:30:00Z,28.8425,-94.2433,2.0,24.5264,11111222 
TABS,ioos:station:wmo:42050:1,2011-11-05T10:00:00Z,28.8425,-94.2433,2.0,24.5255,11111222 
TABS,ioos:station:wmo:42050:1,2011-11-05T10:30:00Z,28.8425,-94.2433,2.0,24.4679,11111222 
TABS,ioos:station:wmo:42050:1,2011-11-05T11:00:00Z,28.8425,-94.2433,2.0,24.5074,11111222 
TABS,ioos:station:wmo:42050:1,2011-11-05T11:30:00Z,28.8425,-94.2433,2.0,24.4597,11111222 
TABS,ioos:station:wmo:42050:1,2011-11-05T12:00:00Z,28.8425,-94.2433,2.0,24.4482,11111222 
TABS,ioos:station:wmo:42050:1,2011-11-05T12:30:00Z,28.8425,-94.2433,2.0,24.4546,11111222 
TABS,ioos:station:wmo:42050:1,2011-11-05T13:00:00Z,28.8425,-94.2433,2.0,24.4594,11111222 
TABS,ioos:station:wmo:42050:1,2011-11-05T13:30:00Z,28.8425,-94.2433,2.0,24.4574,11111222 
TABS,ioos:station:wmo:42050:1,2011-11-05T14:00:00Z,28.8425,-94.2433,2.0,24.4822,11111222 
TABS,ioos:station:wmo:42050:1,2011-11-05T14:30:00Z,28.8425,-94.2433,2.0,24.4624,11111222 
TABS,ioos:station:wmo:42050:1,2011-11-05T15:00:00Z,28.8425,-94.2433,2.0,24.4856,11111222 
TABS,ioos:station:wmo:42050:1,2011-11-05T15:30:00Z,28.8425,-94.2433,2.0,24.5045,11111222 
TABS,ioos:station:wmo:42050:1,2011-11-05T16:00:00Z,28.8425,-94.2433,2.0,24.5086,11111222 
TABS,ioos:station:wmo:42050:1,2011-11-05T16:30:00Z,28.8425,-94.2433,2.0,24.4729,11111222 
TABS,ioos:station:wmo:42050:1,2011-11-05T17:00:00Z,28.8425,-94.2433,2.0,24.4987,11111222 
TABS,ioos:station:wmo:42050:1,2011-11-05T18:30:00Z,28.8425,-94.2433,2.0,24.5197,11111222 
TABS,ioos:station:wmo:42050:1,2011-11-05T19:00:00Z,28.8425,-94.2433,2.0,24.5337,11111222 
TABS,ioos:station:wmo:42050:1,2011-11-05T19:30:00Z,28.8425,-94.2433,2.0,24.5538,11111222 
TABS,ioos:station:wmo:42050:1,2011-11-05T20:00:00Z,28.8425,-94.2433,2.0,24.5262,11111222 
TABS,ioos:station:wmo:42050:1,2011-11-05T20:30:00Z,28.8425,-94.2433,2.0,24.5424,11111222 
TABS,ioos:station:wmo:42050:1,2011-11-05T21:00:00Z,28.8425,-94.2433,2.0,24.4571,11111222 
TABS,ioos:station:wmo:42050:1,2011-11-05T21:30:00Z,28.8425,-94.2433,2.0,24.4582,11111222 
TABS,ioos:station:wmo:42050:1,2011-11-05T22:00:00Z,28.8425,-94.2433,2.0,24.4884,11111222 
TABS,ioos:station:wmo:42050:1,2011-11-05T22:30:00Z,28.8425,-94.2433,2.0,24.4221,11111222 
TABS,ioos:station:wmo:42050:1,2011-11-05T23:00:00Z,28.8425,-94.2433,2.0,24.4585,11111222 
TABS,ioos:station:wmo:42050:1,2011-11-05T23:30:00Z,28.8425,-94.2433,2.0,24.4097,11111222 
TABS,ioos:station:wmo:42050:1,2011-11-06T00:00:00Z,28.8425,-94.2433,2.0,24.3567,11111222 
TABS,ioos:station:wmo:42050:1,2011-11-06T00:30:00Z,28.8425,-94.2433,2.0,24.2553,11111222 
TABS,ioos:station:wmo:42050:1,2011-11-06T01:00:00Z,28.8425,-94.2433,2.0,24.3336,11111222 
TABS,ioos:station:wmo:42050:1,2011-11-06T01:30:00Z,28.8425,-94.2433,2.0,24.3068,11111222 
TABS,ioos:station:wmo:42050:1,2011-11-06T02:00:00Z,28.8425,-94.2433,2.0,24.2978,11111222 
TABS,ioos:station:wmo:42050:1,2011-11-06T02:30:00Z,28.8425,-94.2433,2.0,24.3307,11111222 
TABS,ioos:station:wmo:42050:1,2011-11-06T03:00:00Z,28.8425,-94.2433,2.0,24.1888,11111222 
TABS,ioos:station:wmo:42050:1,2011-11-06T03:30:00Z,28.8425,-94.2433,2.0,24.2939,11111222 
TABS,ioos:station:wmo:42050:1,2011-11-06T04:00:00Z,28.8425,-94.2433,2.0,24.3234,11111222 
TABS,ioos:station:wmo:42050:1,2011-11-06T04:30:00Z,28.8425,-94.2433,2.0,24.2077,11111222 
TABS,ioos:station:wmo:42050:1,2011-11-06T05:00:00Z,28.8425,-94.2433,2.0,24.2383,11111222 
TABS,ioos:station:wmo:42050:1,2011-11-06T05:30:00Z,28.8425,-94.2433,2.0,24.3331,11111222 
TABS,ioos:station:wmo:42050:1,2011-11-06T06:00:00Z,28.8425,-94.2433,2.0,24.3157,11111222 
TABS,ioos:station:wmo:42050:1,2011-11-06T06:30:00Z,28.8425,-94.2433,2.0,24.2735,11111222 
TABS,ioos:station:wmo:42050:1,2011-11-06T07:00:00Z,28.8425,-94.2433,2.0,24.3142,11111222 
TABS,ioos:station:wmo:42050:1,2011-11-06T07:30:00Z,28.8425,-94.2433,2.0,24.276,11111222 
TABS,ioos:station:wmo:42050:1,2011-11-06T08:00:00Z,28.8425,-94.2433,2.0,24.2966,11111222 
TABS,ioos:station:wmo:42050:1,2011-11-06T08:30:00Z,28.8425,-94.2433,2.0,24.2982,11111222 
TABS,ioos:station:wmo:42050:1,2011-11-06T09:00:00Z,28.8425,-94.2433,2.0,24.2918,11111222 
TABS,ioos:station:wmo:42050:1,2011-11-06T09:30:00Z,28.8425,-94.2433,2.0,24.2306,11111222 
TABS,ioos:station:wmo:42050:1,2011-11-06T10:00:00Z,28.8425,-94.2433,2.0,24.3036,11111222 
TABS,ioos:station:wmo:42050:1,2011-11-06T10:30:00Z,28.8425,-94.2433,2.0,24.33,11111222 
TABS,ioos:station:wmo:42050:1,2011-11-06T11:00:00Z,28.8425,-94.2433,2.0,24.2603,11111222 
TABS,ioos:station:wmo:42050:1,2011-11-06T11:30:00Z,28.8425,-94.2433,2.0,24.2923,11111222 
TABS,ioos:station:wmo:42050:1,2011-11-06T12:00:00Z,28.8425,-94.2433,2.0,24.288,11111222 
TABS,ioos:station:wmo:42050:1,2011-11-06T12:30:00Z,28.8425,-94.2433,2.0,24.3033,11111222 
TABS,ioos:station:wmo:42050:1,2011-11-06T13:00:00Z,28.8425,-94.2433,2.0,24.2999,11111222 
TABS,ioos:station:wmo:42050:1,2011-11-06T13:30:00Z,28.8425,-94.2433,2.0,24.2417,11111222 